Arrantzale — EBVT — position and weather

sailwx.info

Track history (hours):
 
Tides and Currents Weather Stations Pressure Air Temp Water Temp Dewpoint Dewpoint Depression Visibility Wind Speed Wind Dir Waves Ship Positions

Arrantzale

Last reported at 2014-Oct-24 14:30 UTC. Time now 2014-Oct-25 18:20 UTC.
Position N 43°23' W 001°47'.

Length 32 m.

Type: Fishing. MMSI: 224065290.

Date/timePositionNaut miles runAvg speedWind from/ knotsBaromVisibWave heightAir tempDewpointWater temp
2014-Oct-24 14:30N 43°23' W 001°47'0 0.0
2014-Oct-24 12:26N 43°23' W 001°47'0 0.0
2014-Oct-24 10:33N 43°23' W 001°47'0 0.0
2014-Oct-24 09:33N 43°23' W 001°47'0 0.0
2014-Oct-24 08:33N 43°23' W 001°47'0 0.0
2014-Oct-24 07:33N 43°23' W 001°47'5 5.4
2014-Oct-24 06:33N 43°28' W 001°45'4 0.2
2014-Oct-23 13:19N 43°24' W 001°46'2 2.1
2014-Oct-23 12:33N 43°23' W 001°47'0 0.0
2014-Oct-23 11:33N 43°23' W 001°47'0 0.0
2014-Oct-23 10:34N 43°23' W 001°47'0 0.0
2014-Oct-23 09:30N 43°23' W 001°47'0 0.0
2014-Oct-23 08:33N 43°23' W 001°47'0 0.0
2014-Oct-23 07:33N 43°23' W 001°47'0 0.1
2014-Oct-23 02:31N 43°23' W 001°47'0 0.5
2014-Oct-23 01:33N 43°23' W 001°48'0 0.0
2014-Oct-23 00:20N 43°23' W 001°48'0 0.0
2014-Oct-22 23:29N 43°23' W 001°48'37 2.5
2014-Oct-22 08:19N 44°00' W 001°43'37 2.2
2014-Oct-21 15:28N 43°23' W 001°47'0 0.1
2014-Oct-21 14:24N 43°23' W 001°47'63 9.1
2014-Oct-21 07:33N 44°25' W 001°38'9 9.3
2014-Oct-21 06:33N 44°35' W 001°35'1 1.4
2014-Oct-21 05:33N 44°36' W 001°34'2 1.7
2014-Oct-21 04:33N 44°34' W 001°33'3 2.7
2014-Oct-21 03:33N 44°32' W 001°31'9 8.7
2014-Oct-21 02:32N 44°40' W 001°34'10 9.6
2014-Oct-21 01:31N 44°50' W 001°34'27 9.2
2014-Oct-20 22:32N 45°18' W 001°33'1 0.7
2014-Oct-20 21:33N 45°17' W 001°33'16 8.1
2014-Oct-20 19:34N 45°01' W 001°38'9 9.4
2014-Oct-20 18:33N 44°53' W 001°33'1111.2
2014-Oct-20 17:33N 44°41' W 001°31'1111.0
2014-Oct-20 16:33N 44°30' W 001°33'1110.9
2014-Oct-20 15:33N 44°20' W 001°34'1110.6
2014-Oct-20 14:33N 44°09' W 001°35'1310.5
2014-Oct-20 13:18N 43°56' W 001°37'1010.9
2014-Oct-20 12:23N 43°46' W 001°40'910.8
2014-Oct-20 11:33N 43°37' W 001°42'1410.9
2014-Oct-20 10:18N 43°24' W 001°46'1 1.7
2014-Oct-20 09:33N 43°23' W 001°48'0 0.1
2014-Oct-20 08:33N 43°23' W 001°47'  
2014-Oct-17 11:20N 43°23' W 001°47'0 0.0
2014-Oct-17 10:23N 43°23' W 001°47'0 0.1
2014-Oct-17 09:29N 43°23' W 001°47'0 0.0
2014-Oct-17 01:10N 43°23' W 001°47'0 0.0
2014-Oct-17 00:07N 43°23' W 001°47'0 0.0
2014-Oct-16 20:17N 43°23' W 001°48'0 0.0
2014-Oct-16 19:05N 43°23' W 001°47'0 0.0
2014-Oct-16 18:33N 43°23' W 001°47'2 0.4
2014-Oct-16 11:30N 43°25' W 001°46'13 9.7
2014-Oct-16 10:11N 43°38' W 001°42'6 9.6
2014-Oct-16 09:33N 43°44' W 001°39'10 9.8
2014-Oct-16 08:34N 43°53' W 001°36'10 9.9
2014-Oct-16 07:33N 44°02' W 001°32'4 2.1
2014-Oct-16 05:30N 44°07' W 001°31'44 6.3
2014-Oct-15 22:26N 43°24' W 001°47'1 1.1
2014-Oct-15 21:30N 43°23' W 001°48'0 0.0
2014-Oct-15 20:27N 43°23' W 001°48'0 0.0
2014-Oct-15 19:28N 43°23' W 001°48'19 8.9
2014-Oct-15 17:19N 43°42' W 001°44'4110.5
2014-Oct-15 13:23N 44°23' W 001°36'910.5
2014-Oct-15 12:33N 44°32' W 001°34'9 9.4
2014-Oct-15 11:33N 44°41' W 001°35'1110.1
2014-Oct-15 10:28N 44°52' W 001°34'2 0.3
2014-Oct-15 02:18N 44°54' W 001°33'810.9
2014-Oct-15 01:34N 44°46' W 001°33'1110.6
2014-Oct-15 00:32N 44°35' W 001°31'7310.5
2014-Oct-14 17:33N 43°23' W 001°47'0 0.2
2014-Oct-14 16:19N 43°23' W 001°47'  
Track history (hours):
 
Tides and Currents Weather Stations Pressure Air Temp Water Temp Dewpoint Dewpoint Depression Visibility Wind Speed Wind Dir Waves Ship Positions

Arrantzale

Last reported at 2014-Oct-24 14:30 UTC. Time now 2014-Oct-25 18:20 UTC.
Position N 43°23' W 001°47'.

Length 32 m.

Type: Fishing. MMSI: 224065290.

Date/timePositionNaut miles runAvg speedWind from/ knotsBaromVisibWave heightAir tempDewpointWater temp
2014-Oct-24 14:30N 43°23' W 001°47'0 0.0
2014-Oct-24 12:26N 43°23' W 001°47'0 0.0
2014-Oct-24 10:33N 43°23' W 001°47'0 0.0
2014-Oct-24 09:33N 43°23' W 001°47'0 0.0
2014-Oct-24 08:33N 43°23' W 001°47'0 0.0
2014-Oct-24 07:33N 43°23' W 001°47'5 5.4
2014-Oct-24 06:33N 43°28' W 001°45'4 0.2
2014-Oct-23 13:19N 43°24' W 001°46'2 2.1
2014-Oct-23 12:33N 43°23' W 001°47'0 0.0
2014-Oct-23 11:33N 43°23' W 001°47'0 0.0
2014-Oct-23 10:34N 43°23' W 001°47'0 0.0
2014-Oct-23 09:30N 43°23' W 001°47'0 0.0
2014-Oct-23 08:33N 43°23' W 001°47'0 0.0
2014-Oct-23 07:33N 43°23' W 001°47'0 0.1
2014-Oct-23 02:31N 43°23' W 001°47'0 0.5
2014-Oct-23 01:33N 43°23' W 001°48'0 0.0
2014-Oct-23 00:20N 43°23' W 001°48'0 0.0
2014-Oct-22 23:29N 43°23' W 001°48'37 2.5
2014-Oct-22 08:19N 44°00' W 001°43'37 2.2
2014-Oct-21 15:28N 43°23' W 001°47'0 0.1
2014-Oct-21 14:24N 43°23' W 001°47'63 9.1
2014-Oct-21 07:33N 44°25' W 001°38'9 9.3
2014-Oct-21 06:33N 44°35' W 001°35'1 1.4
2014-Oct-21 05:33N 44°36' W 001°34'2 1.7
2014-Oct-21 04:33N 44°34' W 001°33'3 2.7
2014-Oct-21 03:33N 44°32' W 001°31'9 8.7
2014-Oct-21 02:32N 44°40' W 001°34'10 9.6
2014-Oct-21 01:31N 44°50' W 001°34'27 9.2
2014-Oct-20 22:32N 45°18' W 001°33'1 0.7
2014-Oct-20 21:33N 45°17' W 001°33'16 8.1
2014-Oct-20 19:34N 45°01' W 001°38'9 9.4
2014-Oct-20 18:33N 44°53' W 001°33'1111.2
2014-Oct-20 17:33N 44°41' W 001°31'1111.0
2014-Oct-20 16:33N 44°30' W 001°33'1110.9
2014-Oct-20 15:33N 44°20' W 001°34'1110.6
2014-Oct-20 14:33N 44°09' W 001°35'1310.5
2014-Oct-20 13:18N 43°56' W 001°37'1010.9
2014-Oct-20 12:23N 43°46' W 001°40'910.8
2014-Oct-20 11:33N 43°37' W 001°42'1410.9
2014-Oct-20 10:18N 43°24' W 001°46'1 1.7
2014-Oct-20 09:33N 43°23' W 001°48'0 0.1
2014-Oct-20 08:33N 43°23' W 001°47'  
2014-Oct-17 11:20N 43°23' W 001°47'0 0.0
2014-Oct-17 10:23N 43°23' W 001°47'0 0.1
2014-Oct-17 09:29N 43°23' W 001°47'0 0.0
2014-Oct-17 01:10N 43°23' W 001°47'0 0.0
2014-Oct-17 00:07N 43°23' W 001°47'0 0.0
2014-Oct-16 20:17N 43°23' W 001°48'0 0.0
2014-Oct-16 19:05N 43°23' W 001°47'0 0.0
2014-Oct-16 18:33N 43°23' W 001°47'2 0.4
2014-Oct-16 11:30N 43°25' W 001°46'13 9.7
2014-Oct-16 10:11N 43°38' W 001°42'6 9.6
2014-Oct-16 09:33N 43°44' W 001°39'10 9.8
2014-Oct-16 08:34N 43°53' W 001°36'10 9.9
2014-Oct-16 07:33N 44°02' W 001°32'4 2.1
2014-Oct-16 05:30N 44°07' W 001°31'44 6.3
2014-Oct-15 22:26N 43°24' W 001°47'1 1.1
2014-Oct-15 21:30N 43°23' W 001°48'0 0.0
2014-Oct-15 20:27N 43°23' W 001°48'0 0.0
2014-Oct-15 19:28N 43°23' W 001°48'19 8.9
2014-Oct-15 17:19N 43°42' W 001°44'4110.5
2014-Oct-15 13:23N 44°23' W 001°36'910.5
2014-Oct-15 12:33N 44°32' W 001°34'9 9.4
2014-Oct-15 11:33N 44°41' W 001°35'1110.1
2014-Oct-15 10:28N 44°52' W 001°34'2 0.3
2014-Oct-15 02:18N 44°54' W 001°33'810.9
2014-Oct-15 01:34N 44°46' W 001°33'1110.6
2014-Oct-15 00:32N 44°35' W 001°31'7310.5
2014-Oct-14 17:33N 43°23' W 001°47'0 0.2
2014-Oct-14 16:19N 43°23' W 001°47'  

Dump ship's entire track history